Regional Weather Roundup
Issued by NWS

Home | Current Version | Previous Version | Graphics & Text | Print | Product List | Glossary On
Versions: 1 2 3 4 5 6 7 8 9 10 11 12 13 14 15 16 17 18 19 20 21 22 23 24 25 26 27 28 29 30 31 32 33 34 35 36 37 38 39 40 41 42 43 44 45 46 47 48 49 50
000
ASUS43 KDMX 191306
RWRIA

WEATHER ROUNDUP FOR IOWA
NATIONAL WEATHER SERVICE DES MOINES IA
700 AM CST SUN FEB 19 2017

NOTE: "FAIR" INDICATES FEW OR NO CLOUDS BELOW 12,000 FEET WITH NO
SIGNIFICANT WEATHER AND/OR OBSTRUCTIONS TO VISIBILITY.

* - THESE STATIONS ARE NOT NWS STATIONS...THUS NOT UNDER NWS
QUALITY CONTROL.  THEY ALSO DO NOT REPORT WEATHER SUCH
AS PRECIPITATION OR FOG.

IAZ001>003-012>014-020>022-031>034-043>046-191400-
   NORTHWEST IOWA

CITY           SKY/WX    TMP DP  RH WIND       PRES   REMARKS
CARROLL *      CLEAR     36  34  93 SE6       29.90R WCI  31
CHEROKEE *     PTCLDY    38  35  89 CALM      29.87S
DENISON *      CLOUDY    43  36  75 VRB5      29.87S
LE MARS *      CLOUDY    39  34  81 S3        29.86R
SHELDON *      PTCLDY    41  37  87 SE10      29.84R
SIOUX CITY     CLOUDY    37  32  82 SE10      29.84R WCI  30
SPENCER        PTCLDY    35  34  96 SE6       29.88R FOG     WCI  30
STORM LAKE *     N/A     36  34  93 SE9       29.88S WCI  29
$$

IAZ055>058-069>071-079>083-090>094-191400-
   SOUTHWEST IOWA

CITY           SKY/WX    TMP DP  RH WIND       PRES   REMARKS
ATLANTIC *     CLOUDY    34  32  93 CALM      29.91R
CLARINDA *       N/A     32  30  93 CALM      29.94R
COUNCIL BLFS * PTCLDY    43  41  93 SE8       29.88S
CRESTON *      CLEAR     41  36  81 S5        29.94R
HARLAN  *      CLOUDY    32  32 100 CALM      29.93S
LAMONI         PTCLDY    44  36  73 S7        29.94R
RED OAK *      CLEAR     36  36 100 CALM      29.92R
SHENANDOAH *   CLOUDY    37  36  93 NE3       29.92R
$$

IAZ047>049-059>061-072>074-084-191400-
   CENTRAL IOWA

CITY           SKY/WX    TMP DP  RH WIND       PRES   REMARKS
AMES           FOG       30  30 100 SE3       29.94R VSB 1/2
ANKENY *       PTCLDY    37  34  87 CALM      29.95S
BOONE *        PTCLDY    36  36 100 SE8       29.92S WCI  29
CHARITON *     PTCLDY    39  32  75 SE7       29.94S WCI  34
DES MOINES     MOCLDY    42  32  67 SE5       29.94S
GRINNELL*      CLOUDY    37  36  96 SE6       29.98R WCI  32
KNOXVILLE *    CLEAR     41  32  70 SE8       29.94S
MARSHALLTOWN   FOG       28  28 100 SE6       29.95R VSB 1/4 WCI  22
NEWTON *       PTCLDY    36  34  93 SE5       29.96R WCI  32
PELLA *        CLEAR     36  33  88 SE3       29.97R
PERRY *          N/A     35  33  94 SE7       29.92S WCI  29
$$

IAZ004>006-015-016-023>025-035-036-191400-
   NORTH CENTRAL IOWA

CITY           SKY/WX    TMP DP  RH WIND       PRES   REMARKS
ALGONA *       CLEAR     41  41 100 SE12      29.91S
CLARION *      CLEAR     39  39 100 SE10      29.93R WCI  32
ESTHERVILLE    FOG       31  31 100 S6        29.89S VSB 1/2 WCI  25
FORT DODGE *   CLEAR     36  30  80 SE5       29.92S WCI  32
MASON CITY     CLEAR     31  30  96 S5        29.96R FOG     WCI  26
FOREST CITY *  FOG       30  28  93 SE5       29.93S VSB 1/4 WCI  25
IOWA FALLS *     N/A     36  35  98 SE6       29.95R FOG     WCI  31
$$

IAZ007>011-017>019-026>030-037>042-050>054-066-191400-
   NORTHEAST IOWA

CITY           SKY/WX    TMP DP  RH WIND       PRES   REMARKS
CEDAR RAPIDS   CLOUDY    31  31 100 E3        29.97R
CHARLES CITY * CLEAR     32  32 100 E7        29.97R FOG     WCI  26
CLINTON *      CLOUDY    27  26  96 E7        30.00R WCI  19
DECORAH *      CLEAR     32  32 100 CALM      29.97R
DUBUQUE        CLEAR     35  34  96 CALM      29.98R
MONTICELLO *   CLOUDY    27  27 100 CALM      30.00R
OELWEIN *      CLEAR     34  34 100 E8        29.97S WCI  27
WATERLOO       FOG       27  25  92 CALM      29.97R VSB 1/4
$$

IAZ064-065-067-068-078-191400-
   EAST CENTRAL IOWA

CITY           SKY/WX    TMP DP  RH WIND       PRES   REMARKS
DAVENPORT      PTCLDY    31  29  92 CALM      30.00R
IOWA CITY      CLOUDY    30  26  85 CALM      29.99R
MUSCATINE *    CLOUDY    30  28  93 CALM      30.00R FOG
QUAD CITIES    CLOUDY    28  25  88 CALM      29.99R
$$

IAZ062-063-075>077-085>089-095>099-191400-
   SOUTHEAST IOWA

CITY           SKY/WX    TMP DP  RH WIND       PRES   REMARKS
BURLINGTON     CLOUDY    36  31  82 CALM      29.98R
FAIRFIELD *    CLOUDY    36  32  87 SE6       29.97R WCI  31
KEOKUK *       CLEAR     37  34  87 CALM      29.98R
OTTUMWA        CLOUDY    35  32  88 SE3       29.97R
WASHINGTON *   CLOUDY    30  30 100 SE3       29.99R FOG
$$

ABBREVIATIONS USED IN REMARKS
   TC - TEMPERATURES IN CELSIUS
  WCI - WIND CHILL INDEX
   HX - HEAT INDEX
  VSB - VISIBILITY
$$





USA.gov is the U.S. government's official web portal to all federal, state and local government web resources and services.